When you browse on this site, cookies collect data to enhance your experience and personalize the content and advertising you see.
Visit our Privacy Policy to learn more. By continuing to use the site, you agree to this use of cookies and data.
  • In Schweiz
  • Länderverzeichnis
  • Für 7 Tage
  • Wassertemperatur
  • Satellitenkarten
  • Wetterkarte
  • Widgets
  • user-avatar
    Anmelden

    Stündliche Wetter Basel

    Heute, 25 April, Donnerstag

    Zeit Temperatur Niederschläge Wind Luftdruck Luftfeuchtigkeit
    00:00 +10°C° 0 mm 1 m/S 734 mmHg 93%
    01:00 +10°C° 0 mm 1 m/S 734 mmHg 93%
    02:00 +10°C° 0 mm 1 m/S 734 mmHg 94%
    03:00 +9°C° 0 mm 1 m/S 734 mmHg 95%
    04:00 +9°C° 0 mm 1 m/S 734 mmHg 95%
    05:00 +10°C° 0 mm 1 m/S 734 mmHg 93%
    06:00 +10°C° 0 mm 1 m/S 734 mmHg 92%
    07:00 +10°C° 0 mm 1 m/S 734 mmHg 90%
    08:00 +13°C° 0 mm 1 m/S 734 mmHg 80%
    09:00 +15°C° 0 mm 1 m/S 734 mmHg 70%
    10:00 +18°C° 0 mm 2 m/S 734 mmHg 60%
    11:00 +19°C° 0 mm 2 m/S 734 mmHg 53%
    12:00 +21°C° 0 mm 2 m/S 733 mmHg 46%
    13:00 +24°C° 0 mm 2 m/S 733 mmHg 39%
    14:00 +24°C° 0 mm 3 m/S 733 mmHg 40%
    15:00 +24°C° 0 mm 3 m/S 733 mmHg 41%
    16:00 +24°C° 0 mm 3 m/S 733 mmHg 42%
    17:00 +20°C° 0 mm 3 m/S 733 mmHg 56%
    18:00 +17°C° 0 mm 3 m/S 733 mmHg 70%
    19:00 +13°C° 0 mm 3 m/S 733 mmHg 83%
    20:00 +12°C° 0 mm 3 m/S 734 mmHg 85%
    21:00 +11°C° 0 mm 3 m/S 734 mmHg 86%
    22:00 +10°C° 0 mm 3 m/S 735 mmHg 87%
    23:00 +9°C° 0.1 mm 3 m/S 735 mmHg 87%

    Morgen, 26 April, Freitag

    Zeit Temperatur Niederschläge Wind Luftdruck Luftfeuchtigkeit
    00:00 +9°C° 0.1 mm 3 m/S 735 mmHg 88%
    01:00 +8°C° 0.1 mm 3 m/S 735 mmHg 89%
    02:00 +8°C° 0.6 mm 3 m/S 735 mmHg 89%
    03:00 +8°C° 0.6 mm 3 m/S 735 mmHg 90%
    04:00 +8°C° 0.6 mm 3 m/S 735 mmHg 91%
    05:00 +7°C° 2.5 mm 3 m/S 735 mmHg 93%
    06:00 +7°C° 2.5 mm 3 m/S 735 mmHg 94%
    07:00 +7°C° 2.5 mm 3 m/S 736 mmHg 95%
    08:00 +7°C° 2.8 mm 3 m/S 736 mmHg 94%
    09:00 +7°C° 2.8 mm 3 m/S 737 mmHg 94%
    10:00 +7°C° 2.8 mm 3 m/S 738 mmHg 93%
    11:00 +7°C° 1 mm 3 m/S 739 mmHg 91%
    12:00 +8°C° 1 mm 2 m/S 739 mmHg 90%
    13:00 +9°C° 1 mm 2 m/S 740 mmHg 88%
    14:00 +10°C° 0.2 mm 2 m/S 740 mmHg 83%
    15:00 +10°C° 0.2 mm 2 m/S 741 mmHg 79%
    16:00 +12°C° 0.2 mm 2 m/S 741 mmHg 74%
    17:00 +12°C° 0 mm 2 m/S 741 mmHg 76%
    18:00 +10°C° 0 mm 2 m/S 741 mmHg 78%
    19:00 +11°C° 0 mm 1 m/S 741 mmHg 81%
    20:00 +10°C° 0 mm 1 m/S 741 mmHg 83%
    21:00 +9°C° 0 mm 1 m/S 742 mmHg 85%
    22:00 +8°C° 0 mm 1 m/S 742 mmHg 87%
    23:00 +7°C° 0 mm 2 m/S 742 mmHg 87%

    übermorgen, 27 April, Samstag

    Zeit Temperatur Niederschläge Wind Luftdruck Luftfeuchtigkeit
    00:00 +6°C° 0 mm 2 m/S 742 mmHg 87%
    01:00 +6°C° 0 mm 2 m/S 742 mmHg 86%
    02:00 +6°C° 0 mm 2 m/S 742 mmHg 85%
    03:00 +6°C° 0 mm 2 m/S 742 mmHg 83%
    04:00 +6°C° 0 mm 2 m/S 742 mmHg 82%
    05:00 +6°C° 0.3 mm 2 m/S 742 mmHg 85%
    06:00 +7°C° 0.3 mm 3 m/S 742 mmHg 88%
    07:00 +7°C° 0.3 mm 3 m/S 742 mmHg 91%
    08:00 +7°C° 0.1 mm 4 m/S 742 mmHg 85%
    09:00 +8°C° 0.1 mm 4 m/S 741 mmHg 80%
    10:00 +9°C° 0.1 mm 5 m/S 741 mmHg 74%
    11:00 +10°C° 0.1 mm 5 m/S 741 mmHg 71%
    12:00 +12°C° 0.1 mm 5 m/S 740 mmHg 69%
    13:00 +13°C° 0.1 mm 6 m/S 740 mmHg 67%
    14:00 +11°C° 0.7 mm 6 m/S 740 mmHg 72%
    15:00 +10°C° 0.7 mm 6 m/S 739 mmHg 77%
    16:00 +9°C° 0.7 mm 6 m/S 739 mmHg 82%
    17:00 +9°C° 0.1 mm 6 m/S 739 mmHg 82%
    18:00 +8°C° 0.1 mm 5 m/S 739 mmHg 83%
    19:00 +7°C° 0.1 mm 5 m/S 740 mmHg 83%
    20:00 +7°C° 0.6 mm 5 m/S 740 mmHg 85%
    21:00 +7°C° 0.6 mm 5 m/S 740 mmHg 88%
    22:00 +6°C° 0.6 mm 4 m/S 740 mmHg 91%
    23:00 +6°C° 0.9 mm 4 m/S 740 mmHg 91%

    28 April, Sonntag

    Zeit Temperatur Niederschläge Wind Luftdruck Luftfeuchtigkeit
    00:00 +6°C° 0.9 mm 4 m/S 740 mmHg 92%
    01:00 +7°C° 0.9 mm 3 m/S 740 mmHg 93%
    02:00 +7°C° 0.4 mm 3 m/S 740 mmHg 93%
    03:00 +5°C° 0.4 mm 3 m/S 740 mmHg 93%
    04:00 +5°C° 0.4 mm 3 m/S 740 mmHg 93%
    05:00 +5°C° 0.2 mm 3 m/S 740 mmHg 93%
    06:00 +7°C° 0.2 mm 3 m/S 740 mmHg 93%
    07:00 +7°C° 0.2 mm 3 m/S 741 mmHg 93%
    08:00 +8°C° 0.4 mm 3 m/S 741 mmHg 91%
    09:00 +8°C° 0.4 mm 3 m/S 741 mmHg 89%
    10:00 +9°C° 0.4 mm 3 m/S 742 mmHg 87%
    11:00 +10°C° 0.4 mm 3 m/S 742 mmHg 84%
    12:00 +11°C° 0.4 mm 3 m/S 742 mmHg 81%
    13:00 +11°C° 0.4 mm 3 m/S 742 mmHg 78%
    14:00 +12°C° 0.4 mm 3 m/S 742 mmHg 76%
    15:00 +13°C° 0.4 mm 2 m/S 742 mmHg 74%
    16:00 +13°C° 0.4 mm 2 m/S 742 mmHg 73%
    17:00 +13°C° 0.3 mm 2 m/S 742 mmHg 77%
    18:00 +12°C° 0.3 mm 2 m/S 742 mmHg 81%
    19:00 +11°C° 0.3 mm 1 m/S 742 mmHg 86%
    20:00 +10°C° 0 mm 1 m/S 742 mmHg 88%
    21:00 +9°C° 0 mm 1 m/S 743 mmHg 90%
    22:00 +8°C° 0 mm 1 m/S 743 mmHg 92%
    23:00 +7°C° 0 mm 1 m/S 743 mmHg 93%

    29 April, Montag

    Zeit Temperatur Niederschläge Wind Luftdruck Luftfeuchtigkeit
    00:00 +7°C° 0 mm 1 m/S 743 mmHg 93%
    01:00 +6°C° 0 mm 0 m/S 743 mmHg 94%
    02:00 +6°C° 0 mm 0 m/S 743 mmHg 94%
    03:00 +6°C° 0 mm 0 m/S 743 mmHg 94%
    04:00 +6°C° 0 mm 0 m/S 743 mmHg 94%
    05:00 +6°C° 0 mm 0 m/S 743 mmHg 93%
    06:00 +7°C° 0 mm 0 m/S 743 mmHg 92%
    07:00 +7°C° 0 mm 0 m/S 743 mmHg 91%
    08:00 +9°C° 0 mm 0 m/S 743 mmHg 85%
    09:00 +12°C° 0 mm 1 m/S 743 mmHg 79%
    10:00 +13°C° 0 mm 1 m/S 742 mmHg 73%
    11:00 +14°C° 0.1 mm 2 m/S 742 mmHg 70%
    12:00 +15°C° 0.1 mm 2 m/S 742 mmHg 67%
    13:00 +15°C° 0.1 mm 2 m/S 741 mmHg 64%
    14:00 +16°C° 0.1 mm 2 m/S 741 mmHg 63%
    15:00 +16°C° 0.1 mm 3 m/S 741 mmHg 62%
    16:00 +17°C° 0.1 mm 3 m/S 740 mmHg 62%
    17:00 +16°C° 0.2 mm 2 m/S 740 mmHg 68%
    18:00 +14°C° 0.2 mm 2 m/S 740 mmHg 75%
    19:00 +13°C° 0.2 mm 1 m/S 740 mmHg 82%
    20:00 +13°C° 0 mm 1 m/S 741 mmHg 84%
    21:00 +12°C° 0 mm 1 m/S 741 mmHg 86%
    22:00 +11°C° 0 mm 1 m/S 741 mmHg 88%
    23:00 +11°C° 0 mm 1 m/S 741 mmHg 89%

    30 April, Dienstag

    Zeit Temperatur Niederschläge Wind Luftdruck Luftfeuchtigkeit
    00:00 +10°C° 0 mm 1 m/S 741 mmHg 91%
    01:00 +9°C° 0 mm 1 m/S 740 mmHg 93%
    02:00 +9°C° 0 mm 1 m/S 740 mmHg 94%
    03:00 +9°C° 0 mm 1 m/S 740 mmHg 94%
    04:00 +9°C° 0 mm 1 m/S 740 mmHg 95%
    05:00 +10°C° 0 mm 1 m/S 740 mmHg 94%
    06:00 +10°C° 0 mm 1 m/S 739 mmHg 93%
    07:00 +11°C° 0 mm 1 m/S 739 mmHg 93%
    08:00 +12°C° 0 mm 2 m/S 739 mmHg 88%
    09:00 +13°C° 0 mm 2 m/S 739 mmHg 83%
    10:00 +13°C° 0 mm 3 m/S 739 mmHg 79%
    11:00 +16°C° 0 mm 3 m/S 738 mmHg 72%
    12:00 +17°C° 0 mm 3 m/S 738 mmHg 65%
    13:00 +18°C° 0 mm 3 m/S 738 mmHg 57%
    14:00 +19°C° 0 mm 3 m/S 738 mmHg 56%
    15:00 +19°C° 0 mm 3 m/S 737 mmHg 54%
    16:00 +19°C° 0 mm 3 m/S 737 mmHg 53%
    17:00 +18°C° 0 mm 2 m/S 737 mmHg 59%
    18:00 +17°C° 0 mm 2 m/S 737 mmHg 66%
    19:00 +16°C° 0 mm 2 m/S 737 mmHg 72%
    20:00 +14°C° 0 mm 2 m/S 738 mmHg 77%
    21:00 +13°C° 0 mm 2 m/S 738 mmHg 82%
    22:00 +10°C° 0 mm 2 m/S 738 mmHg 87%
    23:00 +11°C° 0 mm 1 m/S 738 mmHg 88%
    Mehr zeigen